Time,TemperatureF,DewpointF,PressureIn,WindDirection,WindDirectionDegrees,WindSpeedMPH,WindSpeedGustMPH,Humidity,HourlyPrecipIn,Conditions,Clouds,dailyrainin,SolarRadiationWatts/m^2,SoftwareType,DateUTC
2013-02-03 00:00:00,13.5,10.6,29.99,SSW,194,0.0,0.0,88,0.00,,,0.00,0,WxPro DR1,2013-02-03 05:00:00,
2013-02-03 00:05:00,13.2,10.5,29.99,SSW,194,0.0,0.0,89,0.00,,,0.00,0,WxPro DR1,2013-02-03 05:05:00,
2013-02-03 00:10:00,13.0,10.4,29.99,SSW,193,0.0,0.0,89,0.00,,,0.00,0,WxPro DR1,2013-02-03 05:10:00,
2013-02-03 00:15:00,12.8,10.2,29.98,SSW,193,0.0,0.0,89,0.00,,,0.00,0,WxPro DR1,2013-02-03 05:15:00,
2013-02-03 00:20:00,12.6,10.0,29.98,SSW,194,0.0,0.0,89,0.00,,,0.00,0,WxPro DR1,2013-02-03 05:20:00,
2013-02-03 00:25:00,12.4,9.8,29.98,SSW,193,0.0,0.0,89,0.00,,,0.00,0,WxPro DR1,2013-02-03 05:25:00,
2013-02-03 00:30:00,12.2,9.6,29.98,SSW,194,0.0,0.0,89,0.00,,,0.00,0,WxPro DR1,2013-02-03 05:30:00,
2013-02-03 00:35:00,12.0,9.4,29.98,SSW,192,0.0,0.0,89,0.00,,,0.00,0,WxPro DR1,2013-02-03 05:35:00,
2013-02-03 00:40:00,11.8,9.2,29.98,SSW,194,0.0,0.0,89,0.00,,,0.00,0,WxPro DR1,2013-02-03 05:40:00,
2013-02-03 00:45:00,11.6,9.0,29.98,SSW,193,0.0,0.0,89,0.00,,,0.00,0,WxPro DR1,2013-02-03 05:45:00,
2013-02-03 00:50:00,11.5,8.9,29.98,SSW,194,0.0,0.0,89,0.00,,,0.00,0,WxPro DR1,2013-02-03 05:50:00,
2013-02-03 00:55:00,11.4,9.1,29.98,SSW,194,0.0,0.0,90,0.00,,,0.00,0,WxPro DR1,2013-02-03 05:55:00,
2013-02-03 01:00:00,11.3,8.9,29.98,SSW,193,0.0,0.0,90,0.00,,,0.00,0,WxPro DR1,2013-02-03 06:00:00,
2013-02-03 01:05:00,11.3,8.9,29.97,SSW,193,0.0,0.0,90,0.00,,,0.00,0,WxPro DR1,2013-02-03 06:05:00,
2013-02-03 01:10:00,11.3,8.9,29.97,SSW,192,0.0,0.0,90,0.00,,,0.00,0,WxPro DR1,2013-02-03 06:10:00,
2013-02-03 01:15:00,11.4,9.1,29.97,SSW,194,0.0,1.0,90,0.00,,,0.00,0,WxPro DR1,2013-02-03 06:15:00,
2013-02-03 01:20:00,11.9,9.5,29.97,SSW,194,0.0,2.0,90,0.00,,,0.00,0,WxPro DR1,2013-02-03 06:20:00,
2013-02-03 01:25:00,13.0,10.9,29.97,SSW,194,0.0,2.0,91,0.00,,,0.00,0,WxPro DR1,2013-02-03 06:25:00,
2013-02-03 01:30:00,14.1,12.0,29.96,SSW,194,0.0,2.0,91,0.00,,,0.00,0,WxPro DR1,2013-02-03 06:30:00,
2013-02-03 01:35:00,14.8,12.6,29.97,SSW,192,0.0,1.0,91,0.00,,,0.00,0,WxPro DR1,2013-02-03 06:35:00,
2013-02-03 01:40:00,15.1,13.0,29.97,SSW,194,0.0,2.0,91,0.00,,,0.00,0,WxPro DR1,2013-02-03 06:40:00,
2013-02-03 01:45:00,15.5,13.2,29.97,SSW,193,0.0,2.0,90,0.00,,,0.00,0,WxPro DR1,2013-02-03 06:45:00,
2013-02-03 01:50:00,16.0,13.6,29.97,SSW,193,0.0,3.0,90,0.00,,,0.00,0,WxPro DR1,2013-02-03 06:50:00,
2013-02-03 01:55:00,16.2,13.8,29.97,SSW,194,0.0,3.0,90,0.00,,,0.00,0,WxPro DR1,2013-02-03 06:55:00,
2013-02-03 02:00:00,16.4,13.9,29.97,SSW,194,0.0,2.0,90,0.00,,,0.00,0,WxPro DR1,2013-02-03 07:00:00,
2013-02-03 02:05:00,16.5,13.8,29.97,SSW,192,0.0,2.0,89,0.00,,,0.00,0,WxPro DR1,2013-02-03 07:05:00,
2013-02-03 02:10:00,16.5,13.8,29.97,SSW,194,0.0,2.0,89,0.00,,,0.00,0,WxPro DR1,2013-02-03 07:10:00,
2013-02-03 02:15:00,16.4,13.7,29.97,SSW,193,0.0,1.0,89,0.00,,,0.00,0,WxPro DR1,2013-02-03 07:15:00,
2013-02-03 02:20:00,16.4,13.4,29.97,SSW,192,0.0,1.0,88,0.00,,,0.00,0,WxPro DR1,2013-02-03 07:20:00,
2013-02-03 02:25:00,16.2,13.3,29.97,SSW,194,0.0,1.0,88,0.00,,,0.00,0,WxPro DR1,2013-02-03 07:25:00,
2013-02-03 02:30:00,15.9,13.0,29.97,SSW,194,0.0,0.0,88,0.00,,,0.00,0,WxPro DR1,2013-02-03 07:30:00,
2013-02-03 02:35:00,15.5,12.6,29.97,SSW,194,0.0,0.0,88,0.00,,,0.00,0,WxPro DR1,2013-02-03 07:35:00,
2013-02-03 02:40:00,15.1,12.2,29.96,SSW,194,0.0,0.0,88,0.00,,,0.00,0,WxPro DR1,2013-02-03 07:40:00,
2013-02-03 02:45:00,14.7,11.8,29.96,SSW,194,0.0,0.0,88,0.00,,,0.00,0,WxPro DR1,2013-02-03 07:45:00,
2013-02-03 02:50:00,14.3,11.4,29.96,SSW,194,0.0,0.0,88,0.00,,,0.00,0,WxPro DR1,2013-02-03 07:50:00,
2013-02-03 02:55:00,13.9,11.0,29.96,SSW,192,0.0,0.0,88,0.00,,,0.00,0,WxPro DR1,2013-02-03 07:55:00,
2013-02-03 03:00:00,13.4,10.6,29.96,SSW,194,0.0,0.0,88,0.00,,,0.00,0,WxPro DR1,2013-02-03 08:00:00,
2013-02-03 03:05:00,13.0,10.2,29.96,SSW,194,0.0,0.0,88,0.00,,,0.00,0,WxPro DR1,2013-02-03 08:05:00,
2013-02-03 03:10:00,12.7,9.9,29.96,SSW,193,0.0,0.0,88,0.00,,,0.00,0,WxPro DR1,2013-02-03 08:10:00,
2013-02-03 03:15:00,12.6,9.9,29.96,SSW,194,0.0,0.0,89,0.00,,,0.00,0,WxPro DR1,2013-02-03 08:15:00,
2013-02-03 03:20:00,12.5,9.9,29.96,SSW,192,0.0,0.0,89,0.00,,,0.00,0,WxPro DR1,2013-02-03 08:20:00,
2013-02-03 03:25:00,12.5,9.9,29.95,SSW,193,0.0,0.0,89,0.00,,,0.00,0,WxPro DR1,2013-02-03 08:25:00,
2013-02-03 03:30:00,12.5,9.9,29.95,SSW,193,0.0,0.0,89,0.00,,,0.00,0,WxPro DR1,2013-02-03 08:30:00,
2013-02-03 03:35:00,12.6,9.9,29.95,SSW,194,0.0,0.0,89,0.00,,,0.00,0,WxPro DR1,2013-02-03 08:35:00,
2013-02-03 03:40:00,12.6,10.0,29.95,SSW,194,0.0,0.0,89,0.00,,,0.00,0,WxPro DR1,2013-02-03 08:40:00,
2013-02-03 03:45:00,12.7,10.1,29.95,SSW,194,0.0,0.0,89,0.00,,,0.00,0,WxPro DR1,2013-02-03 08:45:00,
2013-02-03 03:50:00,12.7,10.4,29.95,SSW,194,0.0,0.0,90,0.00,,,0.00,0,WxPro DR1,2013-02-03 08:50:00,
2013-02-03 03:55:00,12.9,10.5,29.95,SSW,194,0.0,0.0,90,0.00,,,0.00,0,WxPro DR1,2013-02-03 08:55:00,
2013-02-03 04:00:00,13.0,10.6,29.95,SSW,194,0.0,0.0,90,0.00,,,0.00,0,WxPro DR1,2013-02-03 09:00:00,
2013-02-03 04:05:00,13.1,10.7,29.95,SSW,193,0.0,0.0,90,0.00,,,0.00,0,WxPro DR1,2013-02-03 09:05:00,
2013-02-03 04:10:00,13.1,10.8,29.95,SSW,194,0.0,0.0,90,0.00,,,0.00,0,WxPro DR1,2013-02-03 09:10:00,
2013-02-03 04:15:00,13.2,10.8,29.94,SSW,194,0.0,0.0,90,0.00,,,0.00,0,WxPro DR1,2013-02-03 09:15:00,
2013-02-03 04:20:00,13.2,10.8,29.94,SSW,194,0.0,0.0,90,0.00,,,0.00,0,WxPro DR1,2013-02-03 09:20:00,
2013-02-03 04:25:00,13.2,10.8,29.94,SSW,193,0.0,0.0,90,0.00,,,0.00,0,WxPro DR1,2013-02-03 09:25:00,
2013-02-03 04:30:00,13.1,10.7,29.94,SSW,192,0.0,0.0,90,0.00,,,0.00,0,WxPro DR1,2013-02-03 09:30:00,
2013-02-03 04:35:00,12.9,10.6,29.94,SSW,194,0.0,0.0,90,0.00,,,0.00,0,WxPro DR1,2013-02-03 09:35:00,
2013-02-03 04:40:00,12.8,10.4,29.93,SSW,194,0.0,0.0,90,0.00,,,0.00,0,WxPro DR1,2013-02-03 09:40:00,
2013-02-03 04:45:00,12.6,10.2,29.93,SSW,193,0.0,0.0,90,0.00,,,0.00,0,WxPro DR1,2013-02-03 09:45:00,
2013-02-03 04:50:00,12.5,10.1,29.94,SSW,193,0.0,0.0,90,0.00,,,0.00,0,WxPro DR1,2013-02-03 09:50:00,
2013-02-03 04:55:00,12.3,10.0,29.93,SSW,192,0.0,0.0,90,0.00,,,0.00,0,WxPro DR1,2013-02-03 09:55:00,
2013-02-03 05:00:00,12.2,9.8,29.93,SSW,194,0.0,0.0,90,0.00,,,0.00,0,WxPro DR1,2013-02-03 10:00:00,
2013-02-03 05:05:00,12.1,9.7,29.93,SSW,194,0.0,0.0,90,0.00,,,0.00,0,WxPro DR1,2013-02-03 10:05:00,
2013-02-03 05:10:00,11.9,9.6,29.93,SSW,192,0.0,0.0,90,0.00,,,0.00,0,WxPro DR1,2013-02-03 10:10:00,
2013-02-03 05:15:00,11.9,9.5,29.93,SSW,194,0.0,0.0,90,0.00,,,0.00,0,WxPro DR1,2013-02-03 10:15:00,
2013-02-03 05:20:00,11.8,9.4,29.93,SSW,194,0.0,0.0,90,0.00,,,0.00,0,WxPro DR1,2013-02-03 10:20:00,
2013-02-03 05:25:00,11.7,9.3,29.93,SSW,193,0.0,0.0,90,0.00,,,0.00,0,WxPro DR1,2013-02-03 10:25:00,
2013-02-03 05:30:00,11.5,9.2,29.93,SSW,194,0.0,0.0,90,0.00,,,0.00,0,WxPro DR1,2013-02-03 10:30:00,
2013-02-03 05:35:00,11.3,9.0,29.93,SSW,194,0.0,0.0,90,0.00,,,0.00,0,WxPro DR1,2013-02-03 10:35:00,
2013-02-03 05:40:00,11.2,9.1,29.92,SSW,193,0.0,0.0,91,0.00,,,0.00,0,WxPro DR1,2013-02-03 10:40:00,
2013-02-03 05:45:00,11.2,8.9,29.92,SSW,192,0.0,0.0,90,0.00,,,0.00,0,WxPro DR1,2013-02-03 10:45:00,
2013-02-03 05:50:00,11.2,8.9,29.92,SSW,192,0.0,0.0,90,0.00,,,0.00,0,WxPro DR1,2013-02-03 10:50:00,
2013-02-03 05:55:00,11.1,9.0,29.92,SSW,193,0.0,0.0,91,0.00,,,0.00,0,WxPro DR1,2013-02-03 10:55:00,
2013-02-03 06:00:00,11.0,8.9,29.92,SSW,194,0.0,0.0,91,0.00,,,0.00,0,WxPro DR1,2013-02-03 11:00:00,
2013-02-03 06:05:00,11.0,8.9,29.92,SSW,194,0.0,0.0,91,0.00,,,0.00,0,WxPro DR1,2013-02-03 11:05:00,
2013-02-03 06:10:00,10.9,8.8,29.92,SSW,192,0.0,1.0,91,0.00,,,0.00,0,WxPro DR1,2013-02-03 11:10:00,
2013-02-03 06:15:00,10.9,8.8,29.92,SSW,193,0.0,1.0,91,0.00,,,0.00,0,WxPro DR1,2013-02-03 11:15:00,
2013-02-03 06:20:00,10.9,8.8,29.91,SSW,194,0.0,0.0,91,0.00,,,0.00,0,WxPro DR1,2013-02-03 11:20:00,
2013-02-03 06:25:00,11.0,8.9,29.91,SSW,192,0.0,1.0,91,0.00,,,0.00,0,WxPro DR1,2013-02-03 11:25:00,
2013-02-03 06:30:00,11.4,9.2,29.91,SSW,194,0.0,1.0,91,0.00,,,0.00,0,WxPro DR1,2013-02-03 11:30:00,
2013-02-03 06:35:00,11.6,9.5,29.91,SSW,194,0.0,1.0,91,0.00,,,0.00,0,WxPro DR1,2013-02-03 11:35:00,
2013-02-03 06:40:00,12.2,10.1,29.91,SSW,194,0.0,1.0,91,0.00,,,0.00,0,WxPro DR1,2013-02-03 11:40:00,
2013-02-03 06:45:00,12.5,10.4,29.91,SSW,194,0.0,1.0,91,0.00,,,0.00,0,WxPro DR1,2013-02-03 11:45:00,
2013-02-03 06:50:00,12.9,10.8,29.91,SSW,194,0.0,1.0,91,0.00,,,0.00,0,WxPro DR1,2013-02-03 11:50:00,
2013-02-03 06:55:00,13.3,11.4,29.91,SSW,193,0.0,1.0,92,0.00,,,0.00,0,WxPro DR1,2013-02-03 11:55:00,
2013-02-03 07:00:00,13.6,11.5,29.91,SSW,194,1.0,2.0,91,0.00,,,0.00,0,WxPro DR1,2013-02-03 12:00:00,
2013-02-03 07:05:00,13.8,11.8,29.91,SSW,192,0.0,2.0,92,0.00,,,0.00,0,WxPro DR1,2013-02-03 12:05:00,
2013-02-03 07:10:00,13.9,11.8,29.91,SSW,193,0.0,2.0,91,0.00,,,0.00,0,WxPro DR1,2013-02-03 12:10:00,
2013-02-03 07:15:00,13.9,11.8,29.91,South,188,0.0,3.0,91,0.00,,,0.00,0,WxPro DR1,2013-02-03 12:15:00,
2013-02-03 07:20:00,14.0,11.9,29.91,South,188,0.0,3.0,91,0.00,,,0.00,0,WxPro DR1,2013-02-03 12:20:00,
2013-02-03 07:25:00,14.0,11.8,29.91,South,188,0.0,1.0,91,0.00,,,0.00,7,WxPro DR1,2013-02-03 12:25:00,
2013-02-03 07:30:00,13.8,11.7,29.91,South,186,0.0,2.0,91,0.00,,,0.00,11,WxPro DR1,2013-02-03 12:30:00,
2013-02-03 07:35:00,13.7,11.6,29.91,South,186,0.0,2.0,91,0.00,,,0.00,18,WxPro DR1,2013-02-03 12:35:00,
2013-02-03 07:40:00,13.4,11.2,29.91,South,186,0.0,1.0,91,0.00,,,0.00,23,WxPro DR1,2013-02-03 12:40:00,
2013-02-03 07:45:00,12.9,10.6,29.91,South,185,0.0,1.0,91,0.00,,,0.00,26,WxPro DR1,2013-02-03 12:45:00,
2013-02-03 07:50:00,12.6,10.5,29.91,South,186,0.0,1.0,91,0.00,,,0.00,30,WxPro DR1,2013-02-03 12:50:00,
2013-02-03 07:55:00,12.7,10.6,29.91,South,186,0.0,0.0,91,0.00,,,0.00,33,WxPro DR1,2013-02-03 12:55:00,
2013-02-03 08:00:00,13.2,11.0,29.91,South,185,0.0,2.0,91,0.00,,,0.00,37,WxPro DR1,2013-02-03 13:00:00,
2013-02-03 08:05:00,13.7,11.5,29.91,South,186,0.0,2.0,91,0.00,,,0.00,37,WxPro DR1,2013-02-03 13:05:00,
2013-02-03 08:10:00,14.0,11.9,29.91,South,186,0.0,2.0,91,0.00,,,0.00,39,WxPro DR1,2013-02-03 13:10:00,
2013-02-03 08:15:00,14.2,12.1,29.91,South,186,0.0,2.0,91,0.00,,,0.00,49,WxPro DR1,2013-02-03 13:15:00,
2013-02-03 08:20:00,14.1,12.0,29.91,South,186,0.0,2.0,91,0.00,,,0.00,53,WxPro DR1,2013-02-03 13:20:00,
2013-02-03 08:25:00,14.1,12.0,29.91,South,186,0.0,1.0,91,0.00,,,0.00,53,WxPro DR1,2013-02-03 13:25:00,
2013-02-03 08:30:00,14.3,12.2,29.91,South,186,0.0,1.0,91,0.00,,,0.00,63,WxPro DR1,2013-02-03 13:30:00,
2013-02-03 08:35:00,14.7,12.5,29.91,South,185,1.0,2.0,91,0.00,,,0.00,67,WxPro DR1,2013-02-03 13:35:00,
2013-02-03 08:40:00,15.2,13.1,29.90,South,186,0.0,3.0,91,0.00,,,0.00,72,WxPro DR1,2013-02-03 13:40:00,
2013-02-03 08:45:00,15.6,13.5,29.90,South,186,0.0,3.0,91,0.00,,,0.00,63,WxPro DR1,2013-02-03 13:45:00,
2013-02-03 08:50:00,15.9,13.7,29.90,South,182,0.0,2.0,91,0.00,,,0.00,54,WxPro DR1,2013-02-03 13:50:00,
2013-02-03 08:55:00,16.0,13.9,29.90,South,183,0.0,2.0,91,0.00,,,0.00,56,WxPro DR1,2013-02-03 13:55:00,
2013-02-03 09:00:00,16.2,14.0,29.90,South,183,1.0,4.0,91,0.00,,,0.00,77,WxPro DR1,2013-02-03 14:00:00,
2013-02-03 09:05:00,16.4,14.3,29.90,South,183,1.0,4.0,91,0.00,,,0.00,83,WxPro DR1,2013-02-03 14:05:00,
2013-02-03 09:10:00,16.7,14.5,29.90,South,184,0.0,3.0,91,0.00,,,0.00,69,WxPro DR1,2013-02-03 14:10:00,
2013-02-03 09:15:00,16.9,14.8,29.89,South,184,0.0,3.0,91,0.00,,,0.00,130,WxPro DR1,2013-02-03 14:15:00,
2013-02-03 09:20:00,17.3,15.1,29.89,South,172,3.0,4.0,91,0.00,,,0.00,183,WxPro DR1,2013-02-03 14:20:00,
2013-02-03 09:25:00,17.9,15.7,29.89,South,173,0.0,4.0,91,0.00,,,0.00,158,WxPro DR1,2013-02-03 14:25:00,
2013-02-03 09:30:00,18.4,15.9,29.89,South,174,1.0,4.0,90,0.00,,,0.00,116,WxPro DR1,2013-02-03 14:30:00,
2013-02-03 09:35:00,18.8,16.3,29.89,WSW,242,0.0,4.0,90,0.00,,,0.00,97,WxPro DR1,2013-02-03 14:35:00,
2013-02-03 09:40:00,19.1,16.4,29.89,SSE,165,1.0,6.0,89,0.00,,,0.00,127,WxPro DR1,2013-02-03 14:40:00,
2013-02-03 09:45:00,19.3,16.4,29.89,South,174,1.0,7.0,88,0.00,,,0.00,125,WxPro DR1,2013-02-03 14:45:00,
2013-02-03 09:50:00,19.7,16.5,29.89,South,170,2.0,7.0,87,0.00,,,0.00,123,WxPro DR1,2013-02-03 14:50:00,
2013-02-03 09:55:00,19.7,16.2,29.88,South,173,0.0,8.0,86,0.00,,,0.00,116,WxPro DR1,2013-02-03 14:55:00,
2013-02-03 10:00:00,19.8,16.3,29.89,South,182,2.0,8.0,86,0.00,,,0.00,158,WxPro DR1,2013-02-03 15:00:00,
2013-02-03 10:05:00,20.0,16.4,29.89,South,182,4.0,5.0,86,0.00,,,0.00,137,WxPro DR1,2013-02-03 15:05:00,
2013-02-03 10:10:00,19.9,16.1,29.89,South,171,0.0,5.0,85,0.00,,,0.00,128,WxPro DR1,2013-02-03 15:10:00,
2013-02-03 10:15:00,20.0,16.3,29.89,South,175,0.0,4.0,85,0.00,,,0.00,104,WxPro DR1,2013-02-03 15:15:00,
2013-02-03 10:20:00,20.2,16.5,29.89,South,176,0.0,3.0,85,0.00,,,0.00,211,WxPro DR1,2013-02-03 15:20:00,
2013-02-03 10:25:00,20.4,16.4,29.88,SW,215,2.0,3.0,84,0.00,,,0.00,185,WxPro DR1,2013-02-03 15:25:00,
2013-02-03 10:30:00,20.7,16.6,29.88,SW,230,0.0,4.0,84,0.00,,,0.00,202,WxPro DR1,2013-02-03 15:30:00,
2013-02-03 10:35:00,20.9,16.6,29.88,South,182,0.0,7.0,83,0.00,,,0.00,227,WxPro DR1,2013-02-03 15:35:00,
2013-02-03 10:40:00,21.0,16.6,29.88,WSW,244,2.0,7.0,83,0.00,,,0.00,172,WxPro DR1,2013-02-03 15:40:00,
2013-02-03 10:45:00,21.2,16.6,29.88,South,174,3.0,5.0,82,0.00,,,0.00,165,WxPro DR1,2013-02-03 15:45:00,
2013-02-03 10:50:00,21.1,16.5,29.88,South,179,0.0,5.0,82,0.00,,,0.00,174,WxPro DR1,2013-02-03 15:50:00,
2013-02-03 10:55:00,21.1,16.5,29.88,SSW,192,0.0,5.0,82,0.00,,,0.00,220,WxPro DR1,2013-02-03 15:55:00,
2013-02-03 11:00:00,21.3,16.7,29.88,SSW,198,0.0,4.0,82,0.00,,,0.00,188,WxPro DR1,2013-02-03 16:00:00,
2013-02-03 11:05:00,21.5,16.7,29.88,South,176,0.0,4.0,81,0.00,,,0.00,220,WxPro DR1,2013-02-03 16:05:00,
2013-02-03 11:10:00,21.7,16.8,29.88,South,183,2.0,4.0,81,0.00,,,0.00,269,WxPro DR1,2013-02-03 16:10:00,
2013-02-03 11:15:00,22.1,16.9,29.88,SSW,195,0.0,4.0,80,0.00,,,0.00,237,WxPro DR1,2013-02-03 16:15:00,
2013-02-03 11:20:00,22.4,17.1,29.88,SSW,198,3.0,4.0,80,0.00,,,0.00,290,WxPro DR1,2013-02-03 16:20:00,
2013-02-03 11:25:00,22.7,17.4,29.87,SW,219,0.0,4.0,80,0.00,,,0.00,271,WxPro DR1,2013-02-03 16:25:00,
2013-02-03 11:30:00,23.0,17.0,29.87,South,169,0.0,4.0,77,0.00,,,0.00,281,WxPro DR1,2013-02-03 16:30:00,
2013-02-03 11:35:00,23.2,17.0,29.87,SW,220,2.0,4.0,77,0.00,,,0.00,276,WxPro DR1,2013-02-03 16:35:00,
2013-02-03 11:40:00,23.3,16.9,29.87,West,275,3.0,7.0,76,0.00,,,0.00,290,WxPro DR1,2013-02-03 16:40:00,
2013-02-03 11:45:00,23.2,16.7,29.86,SSW,197,0.0,7.0,76,0.00,,,0.00,322,WxPro DR1,2013-02-03 16:45:00,
2013-02-03 11:50:00,23.3,16.9,29.86,WNW,284,3.0,7.0,76,0.00,,,0.00,387,WxPro DR1,2013-02-03 16:50:00,
2013-02-03 11:55:00,23.5,16.7,29.86,West,259,4.0,9.0,75,0.00,,,0.00,397,WxPro DR1,2013-02-03 16:55:00,
2013-02-03 12:00:00,23.4,16.6,29.86,West,277,4.0,9.0,75,0.00,,,0.00,329,WxPro DR1,2013-02-03 17:00:00,
2013-02-03 12:05:00,23.4,16.3,29.86,WSW,248,1.0,9.0,74,0.00,,,0.00,244,WxPro DR1,2013-02-03 17:05:00,
2013-02-03 12:10:00,23.4,16.7,29.85,West,262,0.0,6.0,75,0.00,,,0.00,279,WxPro DR1,2013-02-03 17:10:00,
2013-02-03 12:15:00,23.8,16.4,29.85,SW,217,0.0,6.0,73,0.00,,,0.00,297,WxPro DR1,2013-02-03 17:15:00,
2013-02-03 12:20:00,24.0,16.1,29.85,WSW,239,0.0,6.0,71,0.00,,,0.00,339,WxPro DR1,2013-02-03 17:20:00,
2013-02-03 12:25:00,24.1,15.8,29.84,South,173,1.0,5.0,70,0.00,,,0.00,332,WxPro DR1,2013-02-03 17:25:00,
2013-02-03 12:30:00,24.2,15.9,29.84,West,266,0.0,9.0,70,0.00,,,0.00,366,WxPro DR1,2013-02-03 17:30:00,
2013-02-03 12:35:00,24.5,15.8,29.84,WNW,284,1.0,9.0,69,0.00,,,0.00,394,WxPro DR1,2013-02-03 17:35:00,
2013-02-03 12:40:00,24.8,15.8,29.84,South,178,4.0,7.0,68,0.00,,,0.00,425,WxPro DR1,2013-02-03 17:40:00,
2013-02-03 12:45:00,24.8,15.7,29.84,SW,219,4.0,9.0,68,0.00,,,0.00,330,WxPro DR1,2013-02-03 17:45:00,
2013-02-03 12:50:00,24.5,15.2,29.83,WSW,252,3.0,9.0,67,0.00,,,0.00,322,WxPro DR1,2013-02-03 17:50:00,
2013-02-03 12:55:00,24.4,15.7,29.83,WSW,248,6.0,8.0,69,0.00,,,0.00,431,WxPro DR1,2013-02-03 17:55:00,
2013-02-03 13:00:00,24.4,15.0,29.82,SW,234,0.0,9.0,67,0.00,,,0.00,313,WxPro DR1,2013-02-03 18:00:00,
2013-02-03 13:05:00,24.5,15.6,29.82,SSW,211,2.0,9.0,68,0.00,,,0.00,299,WxPro DR1,2013-02-03 18:05:00,
2013-02-03 13:10:00,24.9,15.8,29.82,South,174,0.0,6.0,68,0.00,,,0.00,253,WxPro DR1,2013-02-03 18:10:00,
2013-02-03 13:15:00,25.0,15.3,29.82,WSW,249,3.0,6.0,66,0.00,,,0.00,272,WxPro DR1,2013-02-03 18:15:00,
2013-02-03 13:20:00,25.0,14.6,29.82,WSW,256,6.0,11.0,64,0.00,,,0.00,322,WxPro DR1,2013-02-03 18:20:00,
2013-02-03 13:25:00,24.8,14.8,29.81,WSW,250,0.0,11.0,65,0.00,,,0.00,269,WxPro DR1,2013-02-03 18:25:00,
2013-02-03 13:30:00,24.9,14.9,29.81,WSW,255,2.0,10.0,65,0.00,,,0.00,285,WxPro DR1,2013-02-03 18:30:00,
2013-02-03 13:35:00,25.0,14.9,29.81,South,183,1.0,10.0,65,0.00,,,0.00,248,WxPro DR1,2013-02-03 18:35:00,
2013-02-03 13:40:00,25.2,15.3,29.81,NW,314,3.0,7.0,66,0.00,,,0.00,243,WxPro DR1,2013-02-03 18:40:00,
2013-02-03 13:45:00,25.1,15.4,29.81,WSW,245,4.0,5.0,66,0.00,,,0.00,213,WxPro DR1,2013-02-03 18:45:00,
2013-02-03 13:50:00,25.2,15.5,29.81,West,273,1.0,5.0,66,0.00,,,0.00,223,WxPro DR1,2013-02-03 18:50:00,
2013-02-03 13:55:00,25.2,15.5,29.81,NW,307,2.0,6.0,66,0.00,,,0.00,207,WxPro DR1,2013-02-03 18:55:00,
2013-02-03 14:00:00,25.0,15.5,29.81,NNW,343,2.0,6.0,67,0.00,,,0.00,209,WxPro DR1,2013-02-03 19:00:00,
2013-02-03 14:05:00,24.8,15.7,29.81,WNW,295,0.0,6.0,68,0.00,,,0.00,183,WxPro DR1,2013-02-03 19:05:00,
2013-02-03 14:10:00,24.6,15.2,29.81,NW,310,3.0,5.0,67,0.00,,,0.00,179,WxPro DR1,2013-02-03 19:10:00,
2013-02-03 14:15:00,24.6,15.2,29.81,WNW,303,3.0,6.0,67,0.00,,,0.00,185,WxPro DR1,2013-02-03 19:15:00,
2013-02-03 14:20:00,24.7,15.3,29.81,NW,312,3.0,9.0,67,0.00,,,0.00,190,WxPro DR1,2013-02-03 19:20:00,
2013-02-03 14:25:00,24.7,15.6,29.80,West,268,1.0,9.0,68,0.00,,,0.00,179,WxPro DR1,2013-02-03 19:25:00,
2013-02-03 14:30:00,24.8,15.5,29.80,NW,313,5.0,6.0,67,0.00,,,0.00,183,WxPro DR1,2013-02-03 19:30:00,
2013-02-03 14:35:00,24.8,15.4,29.80,NW,307,1.0,5.0,67,0.00,,,0.00,185,WxPro DR1,2013-02-03 19:35:00,
2013-02-03 14:40:00,24.9,15.1,29.80,NW,313,0.0,7.0,66,0.00,,,0.00,209,WxPro DR1,2013-02-03 19:40:00,
2013-02-03 14:45:00,24.9,15.2,29.80,NW,313,0.0,7.0,66,0.00,,,0.00,202,WxPro DR1,2013-02-03 19:45:00,
2013-02-03 14:50:00,25.1,15.4,29.80,NW,313,0.0,3.0,66,0.00,,,0.00,172,WxPro DR1,2013-02-03 19:50:00,
2013-02-03 14:55:00,25.3,14.9,29.80,NW,311,4.0,6.0,64,0.00,,,0.00,153,WxPro DR1,2013-02-03 19:55:00,
2013-02-03 15:00:00,25.1,14.7,29.80,WSW,257,1.0,6.0,64,0.00,,,0.00,160,WxPro DR1,2013-02-03 20:00:00,
2013-02-03 15:05:00,24.9,14.9,29.80,WSW,257,0.0,6.0,65,0.00,,,0.00,162,WxPro DR1,2013-02-03 20:05:00,
2013-02-03 15:10:00,25.0,14.2,29.80,NW,324,0.0,4.0,63,0.00,,,0.00,139,WxPro DR1,2013-02-03 20:10:00,
2013-02-03 15:15:00,25.0,14.4,29.80,NW,325,0.0,4.0,64,0.00,,,0.00,142,WxPro DR1,2013-02-03 20:15:00,
2013-02-03 15:20:00,25.1,14.6,29.80,WNW,292,2.0,6.0,64,0.00,,,0.00,144,WxPro DR1,2013-02-03 20:20:00,
2013-02-03 15:25:00,25.0,14.6,29.80,NW,323,1.0,6.0,64,0.00,,,0.00,121,WxPro DR1,2013-02-03 20:25:00,
2013-02-03 15:30:00,24.8,14.8,29.80,NNW,327,0.0,6.0,65,0.00,,,0.00,113,WxPro DR1,2013-02-03 20:30:00,
2013-02-03 15:35:00,24.6,14.9,29.80,NW,326,1.0,3.0,66,0.00,,,0.00,118,WxPro DR1,2013-02-03 20:35:00,
2013-02-03 15:40:00,24.5,14.8,29.80,NW,318,2.0,4.0,66,0.00,,,0.00,114,WxPro DR1,2013-02-03 20:40:00,
2013-02-03 15:45:00,24.5,15.1,29.80,NW,308,0.0,4.0,67,0.00,,,0.00,113,WxPro DR1,2013-02-03 20:45:00,
2013-02-03 15:50:00,24.6,15.2,29.80,WNW,296,0.0,4.0,67,0.00,,,0.00,105,WxPro DR1,2013-02-03 20:50:00,
2013-02-03 15:55:00,24.6,15.3,29.80,WNW,298,3.0,4.0,67,0.00,,,0.00,88,WxPro DR1,2013-02-03 20:55:00,
2013-02-03 16:00:00,24.6,15.3,29.80,WNW,300,0.0,3.0,67,0.00,,,0.00,77,WxPro DR1,2013-02-03 21:00:00,
2013-02-03 16:05:00,24.5,15.1,29.79,WNW,300,0.0,3.0,67,0.00,,,0.00,74,WxPro DR1,2013-02-03 21:05:00,
2013-02-03 16:10:00,24.4,15.0,29.79,WNW,300,0.0,3.0,67,0.00,,,0.00,65,WxPro DR1,2013-02-03 21:10:00,
2013-02-03 16:15:00,24.3,15.2,29.79,WNW,300,0.0,3.0,68,0.00,,,0.00,62,WxPro DR1,2013-02-03 21:15:00,
2013-02-03 16:20:00,24.3,15.3,29.79,WNW,300,0.0,3.0,68,0.00,,,0.00,54,WxPro DR1,2013-02-03 21:20:00,
2013-02-03 16:25:00,24.4,15.4,29.79,WNW,301,0.0,3.0,68,0.00,,,0.00,46,WxPro DR1,2013-02-03 21:25:00,
2013-02-03 16:30:00,24.4,15.6,29.79,WNW,301,0.0,3.0,69,0.00,,,0.00,42,WxPro DR1,2013-02-03 21:30:00,
2013-02-03 16:35:00,24.3,15.6,29.79,WNW,300,1.0,2.0,69,0.00,,,0.00,35,WxPro DR1,2013-02-03 21:35:00,
2013-02-03 16:40:00,24.3,15.3,29.79,WNW,301,0.0,2.0,68,0.00,,,0.00,21,WxPro DR1,2013-02-03 21:40:00,
2013-02-03 16:45:00,24.2,15.5,29.79,WNW,300,1.0,2.0,69,0.00,,,0.00,25,WxPro DR1,2013-02-03 21:45:00,
2013-02-03 16:50:00,24.2,15.2,29.79,WNW,299,0.0,2.0,68,0.00,,,0.00,28,WxPro DR1,2013-02-03 21:50:00,
2013-02-03 16:55:00,24.2,15.5,29.79,WNW,299,2.0,3.0,69,0.00,,,0.00,26,WxPro DR1,2013-02-03 21:55:00,
2013-02-03 17:00:00,24.2,15.9,29.79,North,356,0.0,3.0,70,0.00,,,0.00,26,WxPro DR1,2013-02-03 22:00:00,
2013-02-03 17:05:00,24.1,15.6,29.80,North,351,1.0,3.0,69,0.00,,,0.00,26,WxPro DR1,2013-02-03 22:05:00,
2013-02-03 17:10:00,24.0,15.7,29.79,NNW,345,2.0,3.0,70,0.00,,,0.00,21,WxPro DR1,2013-02-03 22:10:00,
2013-02-03 17:15:00,24.0,15.6,29.80,NNW,336,3.0,3.0,70,0.00,,,0.00,9,WxPro DR1,2013-02-03 22:15:00,
2013-02-03 17:20:00,23.9,15.6,29.80,NNW,336,0.0,3.0,70,0.00,,,0.00,0,WxPro DR1,2013-02-03 22:20:00,
2013-02-03 17:25:00,23.8,15.8,29.80,NNW,336,0.0,3.0,71,0.00,,,0.00,0,WxPro DR1,2013-02-03 22:25:00,
2013-02-03 17:30:00,23.8,16.0,29.80,NNW,329,0.0,3.0,72,0.00,,,0.00,0,WxPro DR1,2013-02-03 22:30:00,
2013-02-03 17:35:00,23.7,16.0,29.80,NW,323,1.0,3.0,72,0.00,,,0.00,0,WxPro DR1,2013-02-03 22:35:00,
2013-02-03 17:40:00,23.7,16.3,29.80,NW,323,2.0,3.0,73,0.00,,,0.00,0,WxPro DR1,2013-02-03 22:40:00,
2013-02-03 17:45:00,23.7,16.3,29.80,NW,319,1.0,4.0,73,0.00,,,0.00,0,WxPro DR1,2013-02-03 22:45:00,
2013-02-03 17:50:00,23.6,16.2,29.80,NNW,327,0.0,4.0,73,0.00,,,0.00,0,WxPro DR1,2013-02-03 22:50:00,
2013-02-03 17:55:00,23.5,16.1,29.80,NNW,327,1.0,4.0,73,0.00,,,0.00,0,WxPro DR1,2013-02-03 22:55:00,
2013-02-03 18:00:00,23.4,16.0,29.80,NNW,327,1.0,4.0,73,0.00,,,0.00,0,WxPro DR1,2013-02-03 23:00:00,
2013-02-03 18:05:00,23.3,16.3,29.81,NW,323,0.0,3.0,74,0.00,,,0.00,0,WxPro DR1,2013-02-03 23:05:00,
2013-02-03 18:10:00,23.2,16.2,29.81,NW,323,1.0,3.0,74,0.00,,,0.00,0,WxPro DR1,2013-02-03 23:10:00,
2013-02-03 18:15:00,23.2,16.1,29.81,NW,323,1.0,3.0,74,0.00,,,0.00,0,WxPro DR1,2013-02-03 23:15:00,
2013-02-03 18:20:00,23.1,16.4,29.81,NW,321,1.0,3.0,75,0.00,,,0.00,0,WxPro DR1,2013-02-03 23:20:00,
2013-02-03 18:25:00,23.1,16.4,29.81,NW,321,1.0,3.0,75,0.00,,,0.00,0,WxPro DR1,2013-02-03 23:25:00,
2013-02-03 18:30:00,23.0,16.6,29.81,NW,320,0.0,2.0,76,0.00,,,0.00,0,WxPro DR1,2013-02-03 23:30:00,
2013-02-03 18:35:00,23.0,16.6,29.82,NW,319,0.0,4.0,76,0.00,,,0.00,0,WxPro DR1,2013-02-03 23:35:00,
2013-02-03 18:40:00,23.0,16.6,29.82,WNW,289,1.0,4.0,76,0.00,,,0.00,0,WxPro DR1,2013-02-03 23:40:00,
2013-02-03 18:45:00,22.9,16.5,29.82,West,271,2.0,4.0,76,0.00,,,0.00,0,WxPro DR1,2013-02-03 23:45:00,
2013-02-03 18:50:00,22.7,16.3,29.82,West,265,0.0,5.0,76,0.00,,,0.00,0,WxPro DR1,2013-02-03 23:50:00,
2013-02-03 18:55:00,22.5,16.1,29.82,WNW,283,1.0,5.0,76,0.00,,,0.00,0,WxPro DR1,2013-02-03 23:55:00,
2013-02-03 19:00:00,22.2,16.1,29.83,WNW,291,3.0,5.0,77,0.00,,,0.00,0,WxPro DR1,2013-02-04 00:00:00,
2013-02-03 19:05:00,22.0,16.2,29.83,WNW,282,1.0,5.0,78,0.00,,,0.00,0,WxPro DR1,2013-02-04 00:05:00,
2013-02-03 19:10:00,21.8,16.3,29.83,West,281,0.0,5.0,79,0.00,,,0.00,0,WxPro DR1,2013-02-04 00:10:00,
2013-02-03 19:15:00,21.7,16.4,29.83,West,276,2.0,5.0,80,0.00,,,0.00,0,WxPro DR1,2013-02-04 00:15:00,
2013-02-03 19:20:00,21.7,16.5,29.83,WSW,251,3.0,6.0,80,0.00,,,0.00,0,WxPro DR1,2013-02-04 00:20:00,
2013-02-03 19:25:00,21.6,16.7,29.83,WSW,257,0.0,6.0,81,0.00,,,0.00,0,WxPro DR1,2013-02-04 00:25:00,
2013-02-03 19:30:00,21.6,17.0,29.83,WSW,256,2.0,4.0,82,0.00,,,0.00,0,WxPro DR1,2013-02-04 00:30:00,
2013-02-03 19:35:00,21.5,17.1,29.84,WSW,252,0.0,3.0,83,0.00,,,0.00,0,WxPro DR1,2013-02-04 00:35:00,
2013-02-03 19:41:00,21.4,17.0,29.84,West,271,1.0,6.0,83,0.00,,,0.00,0,WxPro DR1,2013-02-04 00:41:00,
2013-02-03 19:46:00,21.3,17.2,29.84,WNW,282,1.0,6.0,84,0.00,,,0.00,0,WxPro DR1,2013-02-04 00:46:00,
2013-02-03 19:51:00,21.3,17.5,29.84,WNW,284,0.0,5.0,85,0.00,,,0.00,0,WxPro DR1,2013-02-04 00:51:00,
2013-02-03 19:56:00,21.3,17.8,29.84,West,261,3.0,6.0,86,0.00,,,0.00,0,WxPro DR1,2013-02-04 00:56:00,
2013-02-03 20:01:00,21.3,17.8,29.84,WNW,284,2.0,6.0,86,0.00,,,0.00,0,WxPro DR1,2013-02-04 01:01:00,
2013-02-03 20:06:00,21.3,17.8,29.84,West,272,0.0,7.0,86,0.00,,,0.00,0,WxPro DR1,2013-02-04 01:06:00,
2013-02-03 20:11:00,21.3,18.0,29.85,West,263,1.0,9.0,87,0.00,,,0.00,0,WxPro DR1,2013-02-04 01:11:00,
2013-02-03 20:16:00,21.3,18.0,29.85,WSW,244,0.0,14.0,87,0.00,,,0.00,0,WxPro DR1,2013-02-04 01:16:00,
2013-02-03 20:21:00,21.2,17.6,29.85,WNW,287,6.0,14.0,86,0.00,,,0.00,0,WxPro DR1,2013-02-04 01:21:00,
2013-02-03 20:26:00,21.1,17.8,29.85,West,263,2.0,9.0,87,0.00,,,0.00,0,WxPro DR1,2013-02-04 01:26:00,
2013-02-03 20:31:00,21.0,17.8,29.85,West,272,0.0,9.0,87,0.00,,,0.00,0,WxPro DR1,2013-02-04 01:31:00,
2013-02-03 20:36:00,21.0,17.7,29.85,West,275,0.0,9.0,87,0.00,,,0.00,0,WxPro DR1,2013-02-04 01:36:00,
2013-02-03 20:41:00,20.9,17.9,29.85,WNW,284,0.0,9.0,88,0.00,,,0.00,0,WxPro DR1,2013-02-04 01:41:00,
2013-02-03 20:46:00,20.9,17.6,29.85,SW,234,0.0,9.0,87,0.00,,,0.00,0,WxPro DR1,2013-02-04 01:46:00,
2013-02-03 20:51:00,20.9,17.6,29.85,SW,220,3.0,11.0,87,0.00,,,0.00,0,WxPro DR1,2013-02-04 01:51:00,
2013-02-03 20:56:00,20.9,17.6,29.85,WSW,255,2.0,11.0,87,0.00,,,0.00,0,WxPro DR1,2013-02-04 01:56:00,
2013-02-03 21:01:00,20.9,17.6,29.85,West,267,1.0,6.0,87,0.00,,,0.00,0,WxPro DR1,2013-02-04 02:01:00,
2013-02-03 21:06:00,20.9,17.6,29.85,SW,236,0.0,5.0,87,0.00,,,0.00,0,WxPro DR1,2013-02-04 02:06:00,
2013-02-03 21:11:00,20.9,17.4,29.85,SSW,211,2.0,11.0,86,0.00,,,0.00,0,WxPro DR1,2013-02-04 02:11:00,
2013-02-03 21:16:00,21.0,17.2,29.85,WSW,241,0.0,11.0,85,0.00,,,0.00,0,WxPro DR1,2013-02-04 02:16:00,
2013-02-03 21:21:00,21.0,17.2,29.85,West,260,2.0,11.0,85,0.00,,,0.00,0,WxPro DR1,2013-02-04 02:21:00,
2013-02-03 21:26:00,21.0,16.9,29.85,WSW,247,4.0,11.0,84,0.00,,,0.00,0,WxPro DR1,2013-02-04 02:26:00,
2013-02-03 21:31:00,21.0,16.7,29.85,West,273,0.0,10.0,83,0.00,,,0.00,0,WxPro DR1,2013-02-04 02:31:00,
2013-02-03 21:36:00,20.9,16.6,29.86,SW,228,4.0,10.0,83,0.00,,,0.00,0,WxPro DR1,2013-02-04 02:36:00,
2013-02-03 21:41:00,20.9,16.6,29.85,WSW,249,2.0,12.0,83,0.00,,,0.00,0,WxPro DR1,2013-02-04 02:41:00,
2013-02-03 21:46:00,20.8,16.2,29.85,WSW,256,10.0,12.0,82,0.00,,,0.00,0,WxPro DR1,2013-02-04 02:46:00,
2013-02-03 21:51:00,20.8,16.1,29.85,WNW,300,3.0,16.0,82,0.00,,,0.00,0,WxPro DR1,2013-02-04 02:51:00,
2013-02-03 21:56:00,20.8,15.9,29.85,West,268,4.0,16.0,81,0.00,,,0.00,0,WxPro DR1,2013-02-04 02:56:00,
2013-02-03 22:01:00,20.6,15.8,29.85,WSW,248,9.0,12.0,81,0.00,,,0.00,0,WxPro DR1,2013-02-04 03:01:00,
2013-02-03 22:06:00,20.5,15.4,29.85,SW,229,5.0,12.0,80,0.00,,,0.00,0,WxPro DR1,2013-02-04 03:06:00,
2013-02-03 22:11:00,20.4,15.2,29.85,SW,234,4.0,12.0,80,0.00,,,0.00,0,WxPro DR1,2013-02-04 03:11:00,
2013-02-03 22:16:00,20.3,15.1,29.85,SW,228,4.0,10.0,80,0.00,,,0.00,0,WxPro DR1,2013-02-04 03:16:00,
2013-02-03 22:21:00,20.1,14.9,29.85,WSW,253,5.0,13.0,80,0.00,,,0.00,0,WxPro DR1,2013-02-04 03:21:00,
2013-02-03 22:26:00,20.0,14.9,29.85,SW,236,3.0,13.0,80,0.00,,,0.00,0,WxPro DR1,2013-02-04 03:26:00,
2013-02-03 22:31:00,19.9,14.7,29.85,SW,233,2.0,13.0,80,0.00,,,0.00,0,WxPro DR1,2013-02-04 03:31:00,
2013-02-03 22:36:00,19.7,14.6,29.85,WSW,255,3.0,14.0,80,0.00,,,0.00,0,WxPro DR1,2013-02-04 03:36:00,
2013-02-03 22:41:00,19.7,14.8,29.85,SW,234,1.0,14.0,81,0.00,,,0.00,0,WxPro DR1,2013-02-04 03:41:00,
2013-02-03 22:46:00,19.6,14.7,29.85,WSW,253,1.0,14.0,81,0.00,,,0.00,0,WxPro DR1,2013-02-04 03:46:00,
2013-02-03 22:51:00,19.4,14.6,29.85,SW,236,2.0,14.0,81,0.00,,,0.00,0,WxPro DR1,2013-02-04 03:51:00,
2013-02-03 22:56:00,19.3,14.5,29.86,WSW,240,3.0,12.0,81,0.00,,,0.00,0,WxPro DR1,2013-02-04 03:56:00,
2013-02-03 23:01:00,19.1,14.5,29.86,SW,231,0.0,13.0,82,0.00,,,0.00,0,WxPro DR1,2013-02-04 04:01:00,
2013-02-03 23:06:00,19.1,14.5,29.85,WSW,238,3.0,13.0,82,0.00,,,0.00,0,WxPro DR1,2013-02-04 04:06:00,
2013-02-03 23:11:00,19.0,14.4,29.86,WSW,250,2.0,11.0,82,0.00,,,0.00,0,WxPro DR1,2013-02-04 04:11:00,
2013-02-03 23:16:00,19.0,14.7,29.85,SW,230,1.0,12.0,83,0.00,,,0.00,0,WxPro DR1,2013-02-04 04:16:00,
2013-02-03 23:21:00,19.1,14.5,29.85,SW,233,5.0,12.0,82,0.00,,,0.00,0,WxPro DR1,2013-02-04 04:21:00,
2013-02-03 23:26:00,19.1,14.5,29.86,SW,225,10.0,14.0,82,0.00,,,0.00,0,WxPro DR1,2013-02-04 04:26:00,
2013-02-03 23:31:00,19.1,14.2,29.86,WSW,252,4.0,14.0,81,0.00,,,0.00,0,WxPro DR1,2013-02-04 04:31:00,
2013-02-03 23:36:00,19.1,14.2,29.86,SW,234,0.0,9.0,81,0.00,,,0.00,0,WxPro DR1,2013-02-04 04:36:00,
2013-02-03 23:41:00,19.1,14.0,29.86,West,263,5.0,9.0,80,0.00,,,0.00,0,WxPro DR1,2013-02-04 04:41:00,
2013-02-03 23:46:00,19.1,13.9,29.86,WSW,237,0.0,10.0,80,0.00,,,0.00,0,WxPro DR1,2013-02-04 04:46:00,
2013-02-03 23:51:00,19.0,13.9,29.86,West,260,0.0,11.0,80,0.00,,,0.00,0,WxPro DR1,2013-02-04 04:51:00,
2013-02-03 23:56:00,19.0,13.9,29.86,West,265,0.0,11.0,80,0.00,,,0.00,0,WxPro DR1,2013-02-04 04:56:00,